Bismarck, ND

11:32 PM CDT on September 20, 2017 (GMT -0500)
Bismarck Municipal

Weather History for KBIS - May, 2014

Change the Weather History Date:

Tuesday, May 6, 2014

  Actual Average Record
Temperature  
Mean Temperature 57 °F 52 °F  
Max Temperature 68 °F 66 °F 89 °F (1916)
Min Temperature 45 °F 39 °F 17 °F (1989)
Degree Days  
Heating Degree Days 8 13  
Month to date heating degree days 96 83  
Since 1 July heating degree days 8822 8238  
Cooling Degree Days 0 0  
Month to date cooling degree days 0 0  
Year to date cooling degree days 0 1  
Growing Degree Days 6 (Base 50)    
Moisture  
Dew Point 44 °F    
Average Humidity 71    
Maximum Humidity 93    
Minimum Humidity 48    
Precipitation  
Precipitation 0.01 in 0.06 in 0.62 in (1950)
Month to date precipitation 0.01 0.38  
Year to date precipitation 3.35 3.45  
Snow  
Snow 0.00 in 0.00 in 2.00 in (1950)
Month to date snowfall T 0.2  
Since 1 July snowfall 40.5 51.0  
Snow Depth 0.00 in    
Sea Level Pressure  
Sea Level Pressure 29.76 in    
Wind  
Wind Speed 11 mph (East)    
Max Wind Speed 20 mph    
Max Gust Speed 26 mph    
Visibility 10 miles    
Events      
T = Trace of Precipitation, MM = Missing Value Source: NWS Daily Summary

Daily Weather History Graph

Daily Weather History Graph

Search for Another Location

Airport or City:

Trip Planner

Search our weather history database for the weather conditions in past years. The results will help you decide how hot, cold, wet, or windy it might be!

Date:

Astronomy

May. 06, 2014 Rise Set
Actual Time 6:20 AM CDT 8:59 PM CDT
Civil Twilight 5:45 AM CDT 9:34 PM CDT
Nautical Twilight 5:02 AM CDT 10:18 PM CDT
Astronomical Twilight 4:12 AM CDT 11:09 PM CDT
Moon 12:42 PM CDT (5/6) 2:15 AM CDT (5/6)
Length of Visible Light 15h 48m
Length of Day
14h 39m
Waxing Crescent, 46% of the Moon is Illuminated
May 6
Waxing Crescent
May 6
First Quarter
May 14
Full
May 21
Last Quarter
May 28
New

Hourly Weather History & Observations

Time (CDT) Temp. Windchill Dew Point Humidity Pressure Visibility Wind Dir Wind Speed Gust Speed Precip Events Conditions
12:52 AM 51.8 °F - - N/A% 29.83 in 10.0 mi ESE 18.4 mph - N/A   Overcast
1:52 AM 50.0 °F - - N/A% 29.83 in 10.0 mi East 12.7 mph - N/A   Overcast
6:52 AM 45.0 °F 40.6 °F 43.0 °F 93% 29.81 in 10.0 mi ENE 8.1 mph - N/A   Overcast
7:52 AM 46.0 °F 41.4 °F 43.0 °F 89% 29.81 in 10.0 mi ENE 9.2 mph - N/A   Overcast
9:52 AM 46.9 °F - 44.1 °F 90% 29.80 in 10.0 mi East 9.2 mph - N/A   Overcast
10:52 AM 48.9 °F - 44.1 °F 83% 29.78 in 10.0 mi East 12.7 mph - N/A   Overcast
11:52 AM 51.1 °F - 44.1 °F 77% 29.77 in 10.0 mi East 15.0 mph - N/A   Overcast
12:52 PM 53.1 °F - 44.1 °F 71% 29.77 in 10.0 mi East 11.5 mph - N/A   Overcast
1:52 PM 59.0 °F - 46.0 °F 62% 29.73 in 10.0 mi East 10.4 mph - N/A   Clear
2:52 PM 61.0 °F - 46.9 °F 60% 29.72 in 10.0 mi East 12.7 mph - N/A   Scattered Clouds
3:52 PM 63.0 °F - 46.9 °F 56% 29.71 in 10.0 mi East 12.7 mph - N/A   Clear
4:52 PM 66.0 °F - 46.0 °F 48% 29.68 in 10.0 mi ESE 12.7 mph - N/A   Clear
5:52 PM 64.9 °F - 46.0 °F 50% 29.69 in 10.0 mi ESE 10.4 mph - N/A   Scattered Clouds
6:52 PM 64.9 °F - 44.1 °F 47% 29.69 in 10.0 mi East 12.7 mph - N/A   Mostly Cloudy
7:52 PM 63.0 °F - 43.0 °F 48% 29.70 in 10.0 mi East 18.4 mph - N/A   Overcast
8:52 PM 59.0 °F - 43.0 °F 55% 29.72 in 10.0 mi East 15.0 mph - N/A   Mostly Cloudy
9:52 PM 55.0 °F - 43.0 °F 64% 29.73 in 10.0 mi East 10.4 mph - N/A   Partly Cloudy
10:52 PM 52.0 °F - 43.0 °F 71% 29.75 in 10.0 mi East 9.2 mph - N/A   Clear
11:52 PM 51.1 °F - 42.1 °F 71% 29.77 in 10.0 mi East 4.6 mph - N/A   Scattered Clouds